| time (UTC) | temp C | wind direction | speed KPH | gust KPH | rain 1hr cm | rain 24hr cm | rain mn cm | humidity % | barometer mb |
| 20260502214114 | 18 | 0 | 0.0 | 0.0 | 0.00 | 0.00 | 0.00 | 45 | 1019.3 |
| 20260502213110 | 18 | 0 | 0.0 | 0.0 | 0.00 | 0.00 | 0.00 | 44 | 1019.3 |
| 20260502212107 | 18 | 0 | 0.0 | 0.0 | 0.00 | 0.00 | 0.00 | 44 | 1019.4 |
| 20260502211103 | 20 | 0 | 0.0 | 0.0 | 0.00 | 0.00 | 0.00 | 38 | 1019.3 |
| 20260502210100 | 20 | 0 | 0.0 | 0.0 | 0.00 | 0.00 | 0.00 | 36 | 1019.1 |
| 20260502205057 | 20 | 0 | 0.0 | 0.0 | 0.00 | 0.00 | 0.00 | 35 | 1019.1 |
| 20260502204054 | 21 | 0 | 0.0 | 0.0 | 0.00 | 0.00 | 0.00 | 36 | 1019.2 |
| 20260502203050 | 21 | 0 | 0.0 | 0.0 | 0.00 | 0.00 | 0.00 | 36 | 1019.2 |
| 20260502202048 | 21 | 0 | 0.0 | 0.0 | 0.00 | 0.00 | 0.00 | 35 | 1019.3 |
| 20260502201044 | 21 | 0 | 0.0 | 0.0 | 0.00 | 0.00 | 0.00 | 37 | 1019.3 |
| 20260502200041 | 21 | 0 | 0.0 | 0.0 | 0.00 | 0.00 | 0.00 | 35 | 1019.3 |
| 20260502195037 | 22 | 0 | 0.0 | 0.0 | 0.00 | 0.00 | 0.00 | 36 | 1019.3 |
| 20260502194034 | 22 | 0 | 0.0 | 0.0 | 0.00 | 0.00 | 0.00 | 36 | 1019.3 |
| 20260502193031 | 22 | 0 | 0.0 | 0.0 | 0.00 | 0.00 | 0.00 | 38 | 1019.3 |
| 20260502192028 | 22 | 0 | 0.0 | 0.0 | 0.00 | 0.00 | 0.00 | 36 | 1019.3 |
| 20260502191024 | 22 | 0 | 0.0 | 0.0 | 0.00 | 0.00 | 0.00 | 38 | 1019.3 |
| 20260502190021 | 22 | 0 | 0.0 | 0.0 | 0.00 | 0.00 | 0.00 | 37 | 1019.3 |
| 20260502185018 | 23 | 0 | 0.0 | 0.0 | 0.00 | 0.00 | 0.00 | 35 | 1019.2 |
| 20260502184015 | 23 | 0 | 0.0 | 0.0 | 0.00 | 0.00 | 0.00 | 35 | 1019.1 |
| 20260502183011 | 24 | 0 | 0.0 | 0.0 | 0.00 | 0.00 | 0.00 | 36 | 1019.1 |
| 20260502182008 | 25 | 0 | 0.0 | 0.0 | 0.00 | 0.00 | 0.00 | 33 | 1019.0 |
| 20260502181005 | 25 | 0 | 0.0 | 0.0 | 0.00 | 0.00 | 0.00 | 33 | 1019.0 |
| 20260502163936 | 30 | 0 | 0.0 | 0.0 | 0.00 | 0.00 | 0.00 | 29 | 1019.1 |
| 20260502162932 | 30 | 0 | 0.0 | 0.0 | 0.00 | 0.00 | 0.00 | 29 | 1019.1 |
| 20260502161929 | 30 | 0 | 0.0 | 0.0 | 0.00 | 0.00 | 0.00 | 28 | 1019.2 |
| 20260502160926 | 28 | 0 | 0.0 | 0.0 | 0.00 | 0.00 | 0.00 | 30 | 1019.5 |
| 20260502151910 | 27 | 0 | 0.0 | 0.0 | 0.00 | 0.00 | 0.00 | 28 | 1019.9 |
| 20260502150906 | 27 | 0 | 0.0 | 0.0 | 0.00 | 0.00 | 0.00 | 32 | 1020.0 |
| 20260502122815 | 25 | 0 | 0.0 | 0.0 | 0.00 | 0.00 | 0.00 | 31 | 1022.2 |
| 20260502121811 | 25 | 0 | 0.0 | 0.0 | 0.00 | 0.00 | 0.00 | 34 | 1022.4 |
| 20260502120808 | 23 | 0 | 0.0 | 0.0 | 0.00 | 0.00 | 0.00 | 36 | 1022.4 |
| 20260502115805 | 23 | 0 | 0.0 | 0.0 | 0.00 | 0.00 | 0.00 | 35 | 1022.7 |
| 20260502114801 | 23 | 0 | 0.0 | 0.0 | 0.00 | 0.00 | 0.00 | 39 | 1022.7 |
| 20260502113758 | 23 | 0 | 0.0 | 0.0 | 0.00 | 0.00 | 0.00 | 39 | 1022.8 |
| 20260502112755 | 22 | 0 | 0.0 | 0.0 | 0.00 | 0.00 | 0.00 | 39 | 1023.0 |
| 20260502111752 | 23 | 0 | 0.0 | 0.0 | 0.00 | 0.00 | 0.00 | 39 | 1023.2 |
| 20260502110748 | 23 | 0 | 0.0 | 0.0 | 0.00 | 0.00 | 0.00 | 41 | 1023.3 |
| 20260502105745 | 22 | 0 | 0.0 | 0.0 | 0.00 | 0.00 | 0.00 | 44 | 1023.5 |
| 20260502104742 | 22 | 0 | 0.0 | 0.0 | 0.00 | 0.00 | 0.00 | 41 | 1023.7 |
| 20260502103738 | 22 | 0 | 0.0 | 0.0 | 0.00 | 0.00 | 0.00 | 42 | 1023.7 |
| 20260502102735 | 21 | 0 | 0.0 | 0.0 | 0.00 | 0.00 | 0.00 | 43 | 1023.9 |
| 20260502101732 | 21 | 0 | 0.0 | 0.0 | 0.00 | 0.00 | 0.00 | 45 | 1024.0 |
| 20260502100729 | 21 | 0 | 0.0 | 0.0 | 0.00 | 0.00 | 0.00 | 45 | 1024.1 |
| 20260502090709 | 19 | 0 | 0.0 | 0.0 | 0.00 | 0.00 | 0.00 | 50 | 1024.7 |
| 20260502070630 | 13 | 0 | 0.0 | 0.0 | 0.00 | 0.00 | 0.00 | 56 | 1025.1 |
| 20260502065628 | 13 | 0 | 0.0 | 0.0 | 0.00 | 0.00 | 0.00 | 59 | 1025.1 |
| 20260502064624 | 13 | 0 | 0.0 | 0.0 | 0.00 | 0.00 | 0.00 | 59 | 1025.1 |
| 20260502063621 | 13 | 0 | 0.0 | 0.0 | 0.00 | 0.00 | 0.00 | 57 | 1025.1 |
| 20260502062617 | 13 | 0 | 0.0 | 0.0 | 0.00 | 0.00 | 0.00 | 57 | 1025.1 |
| 20260502061614 | 12 | 0 | 0.0 | 0.0 | 0.00 | 0.00 | 0.00 | 59 | 1025.1 |
| 20260502060611 | 12 | 0 | 0.0 | 0.0 | 0.00 | 0.00 | 0.00 | 59 | 1025.1 |
| 20260502055608 | 12 | 0 | 0.0 | 0.0 | 0.00 | 0.00 | 0.00 | 56 | 1025.0 |
| 20260502054604 | 12 | 0 | 0.0 | 0.0 | 0.00 | 0.00 | 0.00 | 55 | 1024.9 |
| 20260502053601 | 12 | 0 | 0.0 | 0.0 | 0.00 | 0.00 | 0.00 | 53 | 1025.0 |
| 20260502052558 | 12 | 0 | 0.0 | 0.0 | 0.00 | 0.00 | 0.00 | 52 | 1025.0 |
| 20260502051554 | 12 | 0 | 0.0 | 0.0 | 0.00 | 0.00 | 0.00 | 53 | 1024.9 |
| 20260502050551 | 12 | 0 | 0.0 | 0.0 | 0.00 | 0.00 | 0.00 | 53 | 1024.9 |
| 20260502045548 | 12 | 0 | 0.0 | 0.0 | 0.00 | 0.00 | 0.00 | 53 | 1024.8 |
| 20260502044545 | 12 | 0 | 0.0 | 0.0 | 0.00 | 0.00 | 0.00 | 53 | 1024.8 |
| 20260502043542 | 12 | 0 | 0.0 | 0.0 | 0.00 | 0.00 | 0.00 | 51 | 1024.7 |
| 20260502042538 | 12 | 0 | 0.0 | 0.0 | 0.00 | 0.00 | 0.00 | 50 | 1024.7 |
| 20260502041535 | 12 | 0 | 0.0 | 0.0 | 0.00 | 0.00 | 0.00 | 50 | 1024.7 |
| 20260502040532 | 12 | 0 | 0.0 | 0.0 | 0.00 | 0.00 | 0.00 | 50 | 1024.7 |
| 20260502035529 | 12 | 0 | 0.0 | 0.0 | 0.00 | 0.00 | 0.00 | 49 | 1024.7 |
| 20260502034525 | 12 | 0 | 0.0 | 0.0 | 0.00 | 0.00 | 0.00 | 50 | 1024.7 |
| 20260502033522 | 12 | 0 | 0.0 | 0.0 | 0.00 | 0.00 | 0.00 | 50 | 1024.7 |
| 20260502032519 | 12 | 0 | 0.0 | 0.0 | 0.00 | 0.00 | 0.00 | 50 | 1024.7 |
| 20260502031516 | 12 | 0 | 0.0 | 0.0 | 0.00 | 0.00 | 0.00 | 49 | 1024.7 |
| 20260502030512 | 12 | 0 | 0.0 | 0.0 | 0.00 | 0.00 | 0.00 | 49 | 1024.7 |
| 20260502025509 | 12 | 0 | 0.0 | 0.0 | 0.00 | 0.00 | 0.00 | 49 | 1024.7 |
| 20260502024506 | 13 | 0 | 0.0 | 0.0 | 0.00 | 0.00 | 0.00 | 48 | 1024.8 |
| 20260502023503 | 13 | 0 | 0.0 | 0.0 | 0.00 | 0.00 | 0.00 | 48 | 1024.7 |
| 20260502022459 | 13 | 0 | 0.0 | 0.0 | 0.00 | 0.00 | 0.00 | 48 | 1024.7 |
| 20260502021456 | 13 | 0 | 0.0 | 0.0 | 0.00 | 0.00 | 0.00 | 48 | 1024.7 |
| 20260502020453 | 13 | 0 | 0.0 | 0.0 | 0.00 | 0.00 | 0.00 | 47 | 1024.7 |
| 20260502015450 | 13 | 0 | 0.0 | 0.0 | 0.00 | 0.00 | 0.00 | 46 | 1024.7 |
| 20260502014446 | 13 | 0 | 0.0 | 0.0 | 0.00 | 0.00 | 0.00 | 47 | 1024.7 |
| 20260502013443 | 13 | 0 | 0.0 | 0.0 | 0.00 | 0.00 | 0.00 | 46 | 1024.8 |
| 20260502012440 | 13 | 0 | 0.0 | 0.0 | 0.00 | 0.00 | 0.00 | 45 | 1024.7 |
| 20260502011437 | 13 | 0 | 0.0 | 0.0 | 0.00 | 0.00 | 0.00 | 45 | 1024.7 |
| 20260502010433 | 13 | 0 | 0.0 | 0.0 | 0.00 | 0.00 | 0.00 | 44 | 1024.7 |
| 20260502005430 | 14 | 0 | 0.0 | 0.0 | 0.00 | 0.00 | 0.00 | 43 | 1024.7 |
| 20260502004428 | 14 | 0 | 0.0 | 0.0 | 0.00 | 0.00 | 0.00 | 43 | 1024.8 |
| 20260502003424 | 14 | 0 | 0.0 | 0.0 | 0.00 | 0.00 | 0.00 | 43 | 1024.8 |
| 20260502002420 | 14 | 0 | 0.0 | 0.0 | 0.00 | 0.00 | 0.00 | 42 | 1024.8 |
| 20260502001417 | 15 | 0 | 0.0 | 0.0 | 0.00 | 0.00 | 0.00 | 43 | 1024.8 |
| 20260502000414 | 15 | 0 | 0.0 | 0.0 | 0.00 | 0.00 | 0.00 | 47 | 1024.8 |
| 20260501235411 | 15 | 0 | 0.0 | 0.0 | 0.00 | 0.00 | 0.00 | 46 | 1024.9 |
| 20260501234408 | 15 | 0 | 0.0 | 0.0 | 0.00 | 0.00 | 0.00 | 45 | 1024.9 |
| 20260501233404 | 15 | 0 | 0.0 | 0.0 | 0.00 | 0.00 | 0.00 | 43 | 1025.0 |
| 20260501232401 | 15 | 0 | 0.0 | 0.0 | 0.00 | 0.00 | 0.00 | 41 | 1024.9 |
| 20260501231358 | 16 | 0 | 0.0 | 0.0 | 0.00 | 0.00 | 0.00 | 41 | 1024.8 |
| 20260501230354 | 16 | 0 | 0.0 | 0.0 | 0.00 | 0.00 | 0.00 | 40 | 1024.9 |
| 20260501225351 | 16 | 0 | 0.0 | 0.0 | 0.00 | 0.00 | 0.00 | 40 | 1024.9 |
| 20260501224348 | 16 | 0 | 0.0 | 0.0 | 0.00 | 0.00 | 0.00 | 39 | 1024.9 |
| 20260501223345 | 16 | 0 | 0.0 | 0.0 | 0.00 | 0.00 | 0.00 | 37 | 1024.8 |
| 20260501222341 | 16 | 0 | 0.0 | 0.0 | 0.00 | 0.00 | 0.00 | 35 | 1024.9 |
| 20260501221338 | 16 | 0 | 0.0 | 0.0 | 0.00 | 0.00 | 0.00 | 35 | 1024.9 |
| 20260501220335 | 17 | 0 | 0.0 | 0.0 | 0.00 | 0.00 | 0.00 | 35 | 1024.8 |
| 20260501215331 | 17 | 0 | 0.0 | 0.0 | 0.00 | 0.00 | 0.00 | 36 | 1024.9 |